Overview Statistics Trail Chart Weather Telemetry Raw packets
 

This is the latest recevied weather packets stored in our database for station/object WD7OO. If no packets are shown the sender has not sent any weather packets the latest 10 day(s).

<< 93 94 95 96 97 98 99 >>
Time Temp. Humidity Pressure Rain* Wind** Luminosity Snow
1787934670 25° C 64% 1022.6 hPa 0 mm - 652 W/m² -
1787934370 25.56° C 63% 1022.3 hPa 0 mm - 673 W/m² -
1787934069 25° C 63% 1022.5 hPa 0 mm - 681 W/m² -
1787933768 25.56° C 64% 1022.6 hPa 0 mm - 712 W/m² -
1787933463 25° C 64% 1022.5 hPa 0 mm - 703 W/m² -
1787933162 25° C 64% 1022.4 hPa 0 mm - 678 W/m² -
1787932857 25.56° C 64% 1022.4 hPa 0 mm - 659 W/m² -
1787932550 25.56° C 62% 1022.4 hPa 0 mm - 674 W/m² -
1787932245 25° C 63% 1022.4 hPa 0 mm - 675 W/m² -
1787931945 25° C 64% 1022.7 hPa 0 mm - 686 W/m² -
1787931644 25° C 63% 1022.7 hPa 0 mm - 654 W/m² -
1787931339 24.44° C 65% 1022.6 hPa 0 mm - 658 W/m² -
1787931034 24.44° C 72% 1022.4 hPa 0 mm - 652 W/m² -
1787930733 23.89° C 67% 1022.2 hPa 0 mm - 655 W/m² -
1787930428 24.44° C 67% 1022.4 hPa 0 mm - 655 W/m² -
1787930123 23.89° C 73% 1022.4 hPa 0 mm - 639 W/m² -
1787929821 23.33° C 73% 1022.4 hPa 0 mm - 622 W/m² -
1787929517 23.33° C 71% 1022.5 hPa 0 mm - 600 W/m² -
1787929215 23.33° C 73% 1022.5 hPa 0 mm - 596 W/m² -
1787928908 23.33° C 74% 1022.7 hPa 0 mm - 589 W/m² -
1787928604 22.78° C 74% 1022.3 hPa 0 mm - 535 W/m² -
1787928302 22.78° C 79% 1022.6 hPa 0 mm - 528 W/m² -
1787928000 22.78° C 79% 1022.4 hPa 0 mm - 511 W/m² -
1787927695 22.22° C 79% 1022.7 hPa 0 mm - 521 W/m² -
1787927394 22.22° C 77% 1022.8 hPa 0 mm - 501 W/m² -

* Rain latest hour (hover to see other rain measurements)
** Current wind speed in m/s (hover to see current wind gust speed)